Back to catalog

STARLINK-5773

AliveCommunicationsVLEO
NORAD 57074·PAYLOAD·🇺🇸 United States

Launched Jun 22, 2023 from Vandenberg Space Force Base

Loading…

Next Passes (next 24 hours)

TLE

FreshSource: CelesTrak SupGP

Epoch: Sep 15, 2026, 02:08 UTC

1 57074C 23088AC  26258.08937500  .00044223  00000+0  16020-2 0  2582
2 57074  43.0006 124.5587 0001113 266.4557 222.3989 15.27552729    12

Track STARLINK-5773 in real time with AllMySat

Download on the App Store